Location: Aufkirchen
(47.9603°N, 11.3653°E)
Time: 07:25:04
(UTC+01:00)

Transit 4A - Pass Details

Date: 27 November 2020
Orbit: 864 x 980 km, 66.8° (Epoch: 25 January)

Event Time Altitude Azimuth Distance (km) Brightness Sun altitude
Rises 13:57:35 0° 317° (NW) 3,690 10.8 16.1°
Reaches altitude 10° 14:01:23 10° 339° (NNW) 2,740 10.0 15.8°
Maximum altitude 14:05:10 16° 15° (NNE) 2,326 9.5 15.5°
Drops below altitude 10° 14:08:55 10° 52° (NE) 2,718 9.8 15.2°
Sets 14:12:39 0° 73° (ENE) 3,647 10.6 14.9°
